Regional Weather Roundup
Issued by NWS

Home | Current Version | Previous Version | Graphics & Text | Print | Product List | Glossary On
Versions: 1 2 3 4 5 6 7 8 9 10 11 12 13 14 15 16 17 18 19 20 21 22 23 24 25 26 27
000
ASUS45 KPSR 222210
RWRAZ

ARIZONA HOURLY REGIONAL WEATHER ROUNDUP
NATIONAL WEATHER SERVICE PHOENIX AZ
300 PM MST SUN OCT 22 2017

NOTE: FAIR INDICATES FEW OR NO CLOUDS BELOW 12,000 FEET WITH NO
SIGNIFICANT WEATHER AND/OR OBSTRUCTIONS TO VISIBILITY.

AZZ001>003-036-222300-
NORTHWEST ARIZONA

CITY           SKY/WX    TMP DP  RH WIND       PRES   REMARKS
BULLHEAD CITY  SUNNY     88  19   8 N21       30.13F
KINGMAN        SUNNY     83  21  10 N8        30.28F
$$

AZZ004>008-015-016-018-222300-
NORTH CENTRAL ARIZONA

CITY           SKY/WX    TMP DP  RH WIND       PRES   REMARKS
GRAND CANYON   SUNNY     71  15  11 W7        30.44F
WILLIAMS       SUNNY     72  25  17 N9        30.43S
PRESCOTT       SUNNY     76  20  12 N6        30.33F
FLAGSTAFF      SUNNY     70  16  12 NE9       30.44F
PAYSON         SUNNY     77  12   8 VRB7      30.33F
PAGE           SUNNY     69  18  14 N7        30.33F
$$

AZZ009>014-017-222300-
NORTHEAST ARIZONA

CITY           SKY/WX    TMP DP  RH WIND       PRES   REMARKS
WINSLOW        SUNNY     71  12  10 VRB3      30.37F
SAINT JOHNS    SUNNY     71  15  11 W6        30.38S
WINDOW ROCK    SUNNY     71  20  14 VRB7      30.41S
SHOW LOW       SUNNY     70  14  11 N8G14     30.43S
$$

AZZ540-542>544-546-548-222300-
GREATER PHOENIX AREA

CITY           SKY/WX    TMP DP  RH WIND       PRES   REMARKS
PHOENIX        SUNNY     91  23   8 SW8       30.07F
BUCKEYE        SUNNY     90  81  74 NW3       30.10F HX 108
GLENDALE       SUNNY     91  10   5 CALM      30.10F
LUKE AFB       SUNNY     90  17   7 CALM      30.08F
DEER VALLEY    SUNNY     90  10   5 VRB6      30.10F
SCOTTSDALE     SUNNY     91  14   6 VRB3      30.11F
MESA-FALCON    SUNNY     88  19   8 W5        30.10F
CHANDLER       SUNNY     90  21   8 VRB6      30.09F
$$

AZZ539-553-222300-
SOUTHWEST MARICOPA COUNTY AND PINAL COUNTY

CITY           SKY/WX    TMP DP  RH WIND       PRES   REMARKS
CASA GRANDE    NOT AVBL
$$

AZZ503-504-507>509-222300-
SOUTHEAST ARIZONA

CITY           SKY/WX    TMP DP  RH WIND       PRES   REMARKS
TUCSON         SUNNY     89  26  10 VRB6      30.15F
DAVIS-MONTHAN  SUNNY     88  25  10 VRB3      30.13F
NOGALES        SUNNY     88  24  10 VRB5      30.18F
SIERRA VISTA   SUNNY     81  21  11 N9        30.27F
DOUGLAS        SUNNY     84  21  10 VRB6      30.22F
SAFFORD        SUNNY     82  15   8 VRB5      30.19F
$$

AZZ532-222300-
SOUTHWEST ARIZONA

CITY           SKY/WX    TMP DP  RH WIND       PRES   REMARKS
YUMA           SUNNY     91  18   7 N10       30.07F
$$

CAZ041-043-047-048-061-525>527-560>570-222300-
SOUTHERN CALIFORNIA

CITY           SKY/WX    TMP DP  RH WIND       PRES   REMARKS
DOWNTOWN L.A.  SUNNY     92  39  15 CALM      30.04F
L.A. AIRPORT   MOSUNNY   83  34  17 W12       30.06F
SAN DIEGO      MOSUNNY   82  42  24 NW10      30.04F
BURBANK        SUNNY     92  23   8 MISG      30.07F
ONTARIO        SUNNY     94  23   8 VRB5      30.08F
RIVERSIDE      SUNNY     94  28   9 N10G17    30.08F
PALM SPRINGS   SUNNY     93  19   7 W3        30.12F
EL CENTRO NAS  SUNNY     90   9   5 NW5       30.11F
IMPERIAL       SUNNY     90  19   7 NE6       30.08F
BLYTHE         SUNNY     90  13   6 N14       30.11F
NEEDLES        SUNNY     91  20   7 N8        30.14F
$$

NVZ020-UTZ003-222300-
SOUTHERN NEVADA-UTAH

CITY           SKY/WX    TMP DP  RH WIND       PRES   REMARKS
LAS VEGAS      SUNNY     81  27  14 CALM      30.25F
SALT LAKE CITY PTSUNNY   68  27  21 S6        30.31S
$$

NMZ009-TXZ055-222300-
NEW MEXICO-WEST TEXAS

CITY           SKY/WX    TMP DP  RH WIND       PRES   REMARKS
ALBUQUERQUE    MOSUNNY   67  18  15 W8        30.32F
EL PASO        SUNNY     78  12   8 VRB3      30.24F
$$


........................KEY........................
SKY/WX - SKY CONDITION/WEATHER
TMP    - TEMPERATURE IN FAHRENHEIT
DP     - DEW POINT IN FAHRENHEIT
RH     - RELATIVE HUMIDITY IN PERCENT
WIND   - DIRECTION AND SPEED IN MILES PER HOUR (MPH)
VRB    - VARIABLE WIND DIRECTION
PRES   - MEAN SEA LEVEL PRESSURE IN INCHES OF MERCURY
         F - FALLING PRESSURE   R - RISING PRESSURE
         S - STEADY PRESSURE
VSB    - VISIBILITY IN MILES
HX     - HEAT INDEX IN FAHRENHEIT
WCI    - WIND CHILL INDEX IN FAHRENHEIT
TC     - TEMPERATURE IN CELSIUS WHICH IS ALSO KNOWN AS
         TEMPERATURE IN CENTIGRADE
AFB    - AIR FORCE BASE
         LUKE AFB IS LUKE AIR FORCE BASE
         DAVIS-MONTHAN IS DAVIS-MONTHAN AIR FORCE BASE
NAS    - NAVAL AIR STATION
         EL CENTRO NAS IS EL CENTRO NAVAL AIR STATION
N/A    - NOT AVAILABLE





USA.gov is the U.S. government's official web portal to all federal, state and local government web resources and services.